Previsão horária em Plisa

Hoje, 9 Março, Terça-feira

Tempo Temperatura Precipitação Vento Pressão Humidade
00:00 -8°C° 0 mm 2 m/s 745 mmHg 83%
01:00 -8°C° 0 mm 2 m/s 745 mmHg 84%
02:00 -9°C° 0 mm 2 m/s 746 mmHg 88%
03:00 -9°C° 0 mm 2 m/s 746 mmHg 89%
04:00 -9°C° 0 mm 2 m/s 746 mmHg 91%
05:00 -10°C° 0 mm 2 m/s 746 mmHg 92%
06:00 -10°C° 0 mm 2 m/s 747 mmHg 90%
07:00 -9°C° 0 mm 2 m/s 747 mmHg 88%
08:00 -10°C° 0 mm 3 m/s 748 mmHg 87%
09:00 -9°C° 0 mm 3 m/s 748 mmHg 79%
10:00 -8°C° 0 mm 3 m/s 748 mmHg 72%
11:00 -8°C° 0 mm 3 m/s 748 mmHg 65%
12:00 -7°C° 0 mm 3 m/s 749 mmHg 60%
13:00 -5°C° 0 mm 2 m/s 749 mmHg 56%
14:00 -5°C° 0 mm 2 m/s 749 mmHg 51%
15:00 -5°C° 0 mm 2 m/s 749 mmHg 55%
16:00 -5°C° 0 mm 2 m/s 749 mmHg 58%
17:00 -3°C° 0 mm 1 m/s 749 mmHg 62%
18:00 -4°C° 0 mm 1 m/s 749 mmHg 66%
19:00 -7°C° 0 mm 2 m/s 749 mmHg 71%
20:00 -8°C° 0 mm 2 m/s 750 mmHg 75%
21:00 -8°C° 0 mm 2 m/s 750 mmHg 75%
22:00 -8°C° 0 mm 2 m/s 750 mmHg 76%
23:00 -8°C° 0 mm 2 m/s 750 mmHg 77%

Amanhã, 10 Março, Quarta-feira

Tempo Temperatura Precipitação Vento Pressão Humidade
00:00 -8°C° 0 mm 2 m/s 750 mmHg 78%
01:00 -9°C° 0 mm 2 m/s 750 mmHg 80%
02:00 -10°C° 0 mm 3 m/s 750 mmHg 81%
03:00 -10°C° 0 mm 3 m/s 750 mmHg 81%
04:00 -10°C° 0 mm 3 m/s 749 mmHg 82%
05:00 -10°C° 0 mm 3 m/s 749 mmHg 82%
06:00 -10°C° 0 mm 3 m/s 749 mmHg 81%
07:00 -10°C° 0 mm 3 m/s 750 mmHg 79%
08:00 -9°C° 0 mm 3 m/s 750 mmHg 77%
09:00 -8°C° 0 mm 3 m/s 750 mmHg 74%
10:00 -7°C° 0 mm 3 m/s 750 mmHg 70%
11:00 -6°C° 0 mm 3 m/s 750 mmHg 67%
12:00 -6°C° 0 mm 3 m/s 750 mmHg 64%
13:00 -4°C° 0 mm 2 m/s 750 mmHg 62%
14:00 -3°C° 0 mm 2 m/s 750 mmHg 59%
15:00 -4°C° 0 mm 2 m/s 749 mmHg 62%
16:00 -4°C° 0 mm 2 m/s 749 mmHg 66%
17:00 -2°C° 0 mm 1 m/s 749 mmHg 69%
18:00 -3°C° 0 mm 1 m/s 749 mmHg 71%
19:00 -3°C° 0 mm 1 m/s 750 mmHg 74%
20:00 -4°C° 0 mm 1 m/s 750 mmHg 76%
21:00 -4°C° 0 mm 1 m/s 750 mmHg 77%
22:00 -4°C° 0 mm 1 m/s 750 mmHg 78%
23:00 -6°C° 0 mm 1 m/s 751 mmHg 79%

Depois de amanhã, 11 Março, Quinta-feira

Tempo Temperatura Precipitação Vento Pressão Humidade
00:00 -6°C° 0 mm 1 m/s 751 mmHg 80%
01:00 -6°C° 0 mm 1 m/s 751 mmHg 81%
02:00 -7°C° 0 mm 1 m/s 751 mmHg 83%
03:00 -8°C° 0 mm 2 m/s 751 mmHg 84%
04:00 -8°C° 0 mm 2 m/s 751 mmHg 85%
05:00 -8°C° 0 mm 2 m/s 751 mmHg 86%
06:00 -8°C° 0 mm 2 m/s 751 mmHg 86%
07:00 -9°C° 0 mm 3 m/s 751 mmHg 86%
08:00 -9°C° 0 mm 3 m/s 751 mmHg 86%
09:00 -8°C° 0 mm 3 m/s 751 mmHg 81%
10:00 -7°C° 0 mm 3 m/s 751 mmHg 76%
11:00 -5°C° 0 mm 4 m/s 751 mmHg 71%
12:00 -5°C° 0 mm 4 m/s 751 mmHg 68%
13:00 -4°C° 0 mm 4 m/s 751 mmHg 65%
14:00 -4°C° 0 mm 5 m/s 750 mmHg 62%
15:00 -5°C° 0 mm 5 m/s 750 mmHg 64%
16:00 -5°C° 0 mm 5 m/s 749 mmHg 67%
17:00 -5°C° 0 mm 5 m/s 749 mmHg 69%
18:00 -6°C° 0 mm 5 m/s 749 mmHg 72%
19:00 -8°C° 0 mm 6 m/s 748 mmHg 75%
20:00 -8°C° 0 mm 6 m/s 748 mmHg 77%
21:00 -8°C° 0 mm 6 m/s 748 mmHg 75%
22:00 -9°C° 0 mm 7 m/s 747 mmHg 73%
23:00 -9°C° 0 mm 7 m/s 747 mmHg 70%

12 Março, Sexta-feira

Tempo Temperatura Precipitação Vento Pressão Humidade
00:00 -9°C° 0 mm 7 m/s 746 mmHg 71%
01:00 -9°C° 0 mm 7 m/s 746 mmHg 73%
02:00 -10°C° 0 mm 8 m/s 745 mmHg 74%
03:00 -10°C° 0 mm 8 m/s 744 mmHg 73%
04:00 -10°C° 0 mm 8 m/s 743 mmHg 72%
05:00 -10°C° 0 mm 8 m/s 743 mmHg 71%
06:00 -10°C° 0.1 mm 9 m/s 742 mmHg 77%
07:00 -10°C° 0.1 mm 9 m/s 741 mmHg 82%
08:00 -10°C° 0.1 mm 9 m/s 740 mmHg 88%
09:00 -9°C° 0.7 mm 10 m/s 740 mmHg 89%
10:00 -8°C° 0.7 mm 10 m/s 739 mmHg 90%
11:00 -8°C° 0.7 mm 10 m/s 739 mmHg 91%
12:00 -6°C° 0.5 mm 9 m/s 738 mmHg 91%
13:00 -5°C° 0.5 mm 9 m/s 738 mmHg 92%
14:00 -5°C° 0.5 mm 9 m/s 737 mmHg 93%
15:00 -5°C° 0.6 mm 8 m/s 737 mmHg 93%
16:00 -5°C° 0.6 mm 8 m/s 737 mmHg 94%
17:00 -3°C° 0.6 mm 7 m/s 737 mmHg 94%
18:00 -3°C° 0.6 mm 6 m/s 737 mmHg 95%
19:00 -2°C° 0.6 mm 5 m/s 737 mmHg 96%
20:00 -1°C° 0.6 mm 4 m/s 737 mmHg 97%
21:00 -1°C° 0.3 mm 4 m/s 738 mmHg 97%
22:00 -1°C° 0.3 mm 4 m/s 738 mmHg 97%
23:00 -1°C° 0.3 mm 4 m/s 739 mmHg 96%

13 Março, Sábado

Tempo Temperatura Precipitação Vento Pressão Humidade
00:00 -1°C° 0 mm 4 m/s 739 mmHg 96%
01:00 -1°C° 0 mm 4 m/s 740 mmHg 95%
02:00 -2°C° 0 mm 4 m/s 740 mmHg 94%
03:00 -2°C° 0 mm 4 m/s 740 mmHg 95%
04:00 -1°C° 0 mm 3 m/s 740 mmHg 95%
05:00 -1°C° 0 mm 3 m/s 741 mmHg 96%
06:00 -2°C° 0 mm 4 m/s 741 mmHg 96%
07:00 -2°C° 0 mm 4 m/s 741 mmHg 96%
08:00 -2°C° 0 mm 5 m/s 741 mmHg 96%
09:00 -1°C° 0 mm 5 m/s 741 mmHg 96%
10:00 -1°C° 0 mm 5 m/s 741 mmHg 96%
11:00 -1°C° 0 mm 5 m/s 741 mmHg 95%
12:00 0°C° 0 mm 5 m/s 741 mmHg 93%
13:00 0°C° 0 mm 5 m/s 740 mmHg 90%
14:00 +1°C° 0 mm 5 m/s 740 mmHg 87%
15:00 +1°C° 0 mm 5 m/s 740 mmHg 88%
16:00 +1°C° 0 mm 5 m/s 739 mmHg 89%
17:00 +1°C° 0 mm 5 m/s 739 mmHg 90%
18:00 0°C° 0.5 mm 5 m/s 739 mmHg 91%
19:00 0°C° 0.5 mm 5 m/s 739 mmHg 93%
20:00 0°C° 0.5 mm 5 m/s 739 mmHg 95%
21:00 0°C° 0.7 mm 4 m/s 739 mmHg 95%
22:00 -1°C° 0.7 mm 4 m/s 739 mmHg 96%
23:00 0°C° 0.7 mm 3 m/s 740 mmHg 96%

14 Março, Domingo

Tempo Temperatura Precipitação Vento Pressão Humidade
00:00 0°C° 0 mm 3 m/s 739 mmHg 95%
01:00 -1°C° 0 mm 3 m/s 739 mmHg 94%
02:00 -1°C° 0 mm 3 m/s 739 mmHg 93%
03:00 -2°C° 0 mm 4 m/s 739 mmHg 92%
04:00 -2°C° 0 mm 4 m/s 739 mmHg 92%
05:00 -2°C° 0 mm 5 m/s 738 mmHg 91%
06:00 -1°C° 0 mm 5 m/s 738 mmHg 92%
07:00 -2°C° 0 mm 6 m/s 738 mmHg 93%
08:00 -2°C° 0 mm 6 m/s 738 mmHg 94%
09:00 -1°C° 0.1 mm 6 m/s 738 mmHg 94%
10:00 -1°C° 0.1 mm 6 m/s 738 mmHg 95%
11:00 +1°C° 0.1 mm 6 m/s 738 mmHg 95%
12:00 +1°C° 0 mm 6 m/s 738 mmHg 94%
13:00 +2°C° 0 mm 6 m/s 738 mmHg 93%
14:00 +2°C° 0 mm 6 m/s 737 mmHg 92%
15:00 +2°C° 0.1 mm 6 m/s 737 mmHg 92%
16:00 +2°C° 0.1 mm 6 m/s 737 mmHg 91%
17:00 +2°C° 0.1 mm 5 m/s 737 mmHg 91%
18:00 +2°C° 0 mm 6 m/s 737 mmHg 90%
19:00 +2°C° 0 mm 6 m/s 737 mmHg 89%
20:00 +2°C° 0 mm 6 m/s 737 mmHg 88%
21:00 +2°C° 0.1 mm 6 m/s 737 mmHg 88%
22:00 +2°C° 0.1 mm 6 m/s 737 mmHg 88%
23:00 +1°C° 0.1 mm 6 m/s 737 mmHg 89%
Mostrar mais

Necessitamos do seu Consentimento

A Meteoprog e os seus Fornecedores de Serviços podem armazenar e aceder a dados pessoais como cookies, identificadores do dispositivo ou outras tecnologias semelhantes existentes no seu dispositivo e processar estes dados para personalizar conteúdos e anúncios, assim como funcionalidades nas redes sociais e análise de tráfego.

  • Armazenar e/ou aceder a informações no seu dispositivo

    Os cookies, identificadores do dispositivo ou outras informações podem ser armazenados ou acedidos no seu dispositivo, para os fins acima indicados.

  • Anúncios e conteúdos personalizados, medição de anúncios e conteúdos, dados sobre o público-alvo e desenvolvimento de produtos

    Os anúncios e os conteúdos podem ser personalizados com base num perfil. Podem ser adicionados dados adicionais para uma maior personalização dos anúncios e dos conteúdos. A eficácia dos anúncios e dos conteúdos pode ser medida. Podem ser obtidas informações sobre o público que visualizou os anúncios e os conteúdos. Estes dados podem ser usados para desenvolver ou melhorar sistemas, softwares ou a experiência do utilizador.

Ao clicar em "Eu concordo”, permitirá o uso de cookies, identificadores do dispositivo e web beacons mencionados ou outras tecnologias semelhantes. As configurações do navegador do seu dispositivo podem ser alteradas.

Para certos fins, podem ser invocados interesses legítimos ao invés de consentimento. Pode ler mais informação sobre este assunto na nossa Política de Privacidade e Cookies.